Time,TemperatureF,DewpointF,PressureIn,WindDirection,WindDirectionDegrees,WindSpeedMPH,WindSpeedGustMPH,Humidity,HourlyPrecipIn,Conditions,Clouds,dailyrainin,SoftwareType,DateUTC
2013-07-06 00:01:00,76.0,69.0,-100.00,North,0,0.0,0.0,79,0.77,,,-99.99,,2013-07-06 07:01:00,
2013-07-06 00:12:00,76.0,69.0,-100.00,North,0,0.0,0.0,79,0.77,,,-99.99,,2013-07-06 07:12:00,
2013-07-06 00:33:00,76.0,69.0,-100.00,North,0,0.0,0.0,78,0.77,,,-99.99,,2013-07-06 07:33:00,
2013-07-06 00:43:00,76.0,68.0,-100.00,North,0,0.0,0.0,77,0.77,,,-99.99,,2013-07-06 07:43:00,
2013-07-06 00:52:00,76.0,69.0,-100.00,North,0,0.0,0.0,78,0.77,,,-99.99,,2013-07-06 07:52:00,
2013-07-06 01:02:00,76.0,69.0,-100.00,North,0,0.0,0.0,78,0.77,,,-99.99,,2013-07-06 08:02:00,
2013-07-06 01:11:00,76.0,69.0,-100.00,North,0,0.0,0.0,78,0.77,,,-99.99,,2013-07-06 08:11:00,
2013-07-06 01:21:00,75.0,68.0,-100.00,North,0,0.0,0.0,79,0.77,,,-99.99,,2013-07-06 08:21:00,
2013-07-06 01:33:00,76.0,69.0,-100.00,North,0,0.0,0.0,79,0.77,,,-99.99,,2013-07-06 08:33:00,
2013-07-06 01:54:00,76.0,68.0,-100.00,North,0,0.0,0.0,77,0.77,,,-99.99,,2013-07-06 08:54:00,
2013-07-06 02:02:00,76.0,69.0,-100.00,North,0,0.0,0.0,78,0.77,,,-99.99,,2013-07-06 09:02:00,
2013-07-06 02:11:00,76.0,67.0,-100.00,North,0,0.0,0.0,73,0.77,,,-99.99,,2013-07-06 09:11:00,
2013-07-06 02:22:00,77.0,68.0,-100.00,North,0,0.0,0.0,74,0.77,,,-99.99,,2013-07-06 09:22:00,
2013-07-06 02:33:00,77.0,68.0,-100.00,North,0,0.0,0.0,75,0.77,,,-99.99,,2013-07-06 09:33:00,
2013-07-06 02:43:00,77.0,68.0,-100.00,North,0,0.0,0.0,75,0.77,,,-99.99,,2013-07-06 09:43:00,
2013-07-06 02:52:00,76.0,68.0,-100.00,North,0,0.0,0.0,76,0.77,,,-99.99,,2013-07-06 09:52:00,
2013-07-06 03:02:00,76.0,68.0,-100.00,North,0,0.0,0.0,77,0.77,,,-99.99,,2013-07-06 10:02:00,
2013-07-06 03:11:00,76.0,69.0,-100.00,North,0,0.0,0.0,78,0.77,,,-99.99,,2013-07-06 10:11:00,
2013-07-06 03:21:00,76.0,67.0,-100.00,North,0,0.0,0.0,75,0.77,,,-99.99,,2013-07-06 10:21:00,
2013-07-06 03:33:00,78.0,67.0,-100.00,North,0,0.0,0.0,70,0.77,,,-99.99,,2013-07-06 10:33:00,
2013-07-06 03:42:00,79.0,68.0,-100.00,North,0,0.0,0.0,69,0.77,,,-99.99,,2013-07-06 10:42:00,
2013-07-06 03:53:00,79.0,68.0,-100.00,North,0,0.0,0.0,70,0.77,,,-99.99,,2013-07-06 10:53:00,
2013-07-06 04:01:00,78.0,67.0,-100.00,North,0,0.0,0.0,69,0.77,,,-99.99,,2013-07-06 11:01:00,
2013-07-06 04:11:00,78.0,67.0,-100.00,North,0,0.0,0.0,70,0.77,,,-99.99,,2013-07-06 11:11:00,
2013-07-06 04:21:00,78.0,67.0,-100.00,North,0,0.0,0.0,70,0.77,,,-99.99,,2013-07-06 11:21:00,
2013-07-06 04:32:00,78.0,67.0,-100.00,North,0,0.0,0.0,69,0.77,,,-99.99,,2013-07-06 11:32:00,
2013-07-06 04:42:00,78.0,68.0,-100.00,North,0,0.0,0.0,71,0.77,,,-99.99,,2013-07-06 11:42:00,
2013-07-06 04:52:00,78.0,67.0,-100.00,North,0,0.0,0.0,69,0.77,,,-99.99,,2013-07-06 11:52:00,
2013-07-06 05:01:00,78.0,66.0,-100.00,WNW,297,0.0,1.0,67,0.77,,,-99.99,,2013-07-06 12:01:00,
2013-07-06 05:11:00,79.0,67.0,-100.00,WNW,297,0.0,0.0,66,0.77,,,-99.99,,2013-07-06 12:11:00,
2013-07-06 05:21:00,79.0,66.0,-100.00,North,0,0.0,0.0,64,0.77,,,-99.99,,2013-07-06 12:21:00,
2013-07-06 05:33:00,80.0,67.0,-100.00,North,0,0.0,0.0,65,0.77,,,-99.99,,2013-07-06 12:33:00,
2013-07-06 05:43:00,79.0,67.0,-100.00,North,0,0.0,0.0,67,0.77,,,-99.99,,2013-07-06 12:43:00,
2013-07-06 05:52:00,78.0,66.0,-100.00,North,0,0.0,0.0,67,0.77,,,-99.99,,2013-07-06 12:52:00,
2013-07-06 06:33:00,80.0,67.0,-100.00,North,0,0.0,0.0,64,0.77,,,-99.99,,2013-07-06 13:33:00,
2013-07-06 06:52:00,80.0,68.0,-100.00,North,0,0.0,0.0,66,0.77,,,-99.99,,2013-07-06 13:52:00,
2013-07-06 07:02:00,79.0,67.0,-100.00,North,0,0.0,0.0,67,0.77,,,-99.99,,2013-07-06 14:02:00,
2013-07-06 07:11:00,79.0,68.0,-100.00,North,0,0.0,0.0,68,0.77,,,-99.99,,2013-07-06 14:11:00,
2013-07-06 07:42:00,81.0,68.0,-100.00,North,0,0.0,0.0,64,0.77,,,-99.99,,2013-07-06 14:42:00,
2013-07-06 07:53:00,81.0,68.0,-100.00,North,0,0.0,0.0,65,0.77,,,-99.99,,2013-07-06 14:53:00,
2013-07-06 08:02:00,82.0,67.0,-100.00,North,0,0.0,0.0,61,0.77,,,-99.99,,2013-07-06 15:02:00,
2013-07-06 08:11:00,82.0,68.0,-100.00,North,0,0.0,0.0,62,0.77,,,-99.99,,2013-07-06 15:11:00,
2013-07-06 08:22:00,82.0,67.0,-100.00,North,0,0.0,0.0,61,0.77,,,-99.99,,2013-07-06 15:22:00,
2013-07-06 08:43:00,83.0,65.0,-100.00,North,0,0.0,0.0,55,0.77,,,-99.99,,2013-07-06 15:43:00,
2013-07-06 08:52:00,84.0,65.0,-100.00,North,0,0.0,0.0,53,0.77,,,-99.99,,2013-07-06 15:52:00,
2013-07-06 09:02:00,85.0,65.0,-100.00,North,0,0.0,0.0,52,0.77,,,-99.99,,2013-07-06 16:02:00,
2013-07-06 09:11:00,85.0,65.0,-100.00,North,0,0.0,0.0,52,0.77,,,-99.99,,2013-07-06 16:11:00,
2013-07-06 09:22:00,85.0,64.0,-100.00,North,0,0.0,0.0,49,0.77,,,-99.99,,2013-07-06 16:22:00,
2013-07-06 09:33:00,86.0,63.0,-100.00,North,0,0.0,0.0,47,0.77,,,-99.99,,2013-07-06 16:33:00,
2013-07-06 10:01:00,90.0,62.0,-100.00,North,0,0.0,0.0,39,0.77,,,-99.99,,2013-07-06 17:01:00,
2013-07-06 10:12:00,90.0,59.0,-100.00,SW,236,1.0,5.0,36,0.77,,,-99.99,,2013-07-06 17:12:00,
2013-07-06 10:22:00,90.0,59.0,-100.00,SW,236,1.0,5.0,36,0.77,,,-99.99,,2013-07-06 17:22:00,
2013-07-06 10:34:00,90.0,57.0,-100.00,SSW,200,3.0,8.0,33,0.77,,,-99.99,,2013-07-06 17:34:00,
2013-07-06 10:53:00,91.0,59.0,-100.00,North,0,0.0,0.0,35,0.77,,,-99.99,,2013-07-06 17:53:00,
2013-07-06 11:22:00,93.0,58.0,-100.00,SW,232,1.0,4.0,31,0.77,,,-99.99,,2013-07-06 18:22:00,
2013-07-06 11:43:00,94.0,57.0,-100.00,SW,219,3.0,9.0,29,0.77,,,-99.99,,2013-07-06 18:43:00,
2013-07-06 11:53:00,94.0,55.0,-100.00,SW,233,3.0,9.0,27,0.77,,,-99.99,,2013-07-06 18:53:00,
2013-07-06 12:02:00,95.0,58.0,-100.00,SSE,148,0.0,1.0,29,0.77,,,-99.99,,2013-07-06 19:02:00,
2013-07-06 12:33:00,97.0,54.0,-100.00,SW,231,1.0,7.0,24,0.77,,,-99.99,,2013-07-06 19:33:00,
2013-07-06 12:43:00,99.0,56.0,-100.00,WSW,250,1.0,4.0,24,0.77,,,-99.99,,2013-07-06 19:43:00,
2013-07-06 12:53:00,99.0,55.0,-100.00,NE,42,0.0,5.0,23,0.77,,,-99.99,,2013-07-06 19:53:00,
2013-07-06 13:11:00,100.0,54.0,-100.00,SSW,212,0.0,7.0,22,0.77,,,-99.99,,2013-07-06 20:11:00,
2013-07-06 13:23:00,100.0,52.0,-100.00,SW,225,3.0,11.0,20,0.77,,,-99.99,,2013-07-06 20:23:00,
2013-07-06 13:34:00,100.0,49.0,-100.00,SW,236,4.0,10.0,18,0.77,,,-99.99,,2013-07-06 20:34:00,
2013-07-06 14:02:00,99.0,48.0,-100.00,South,181,1.0,9.0,18,0.77,,,-99.99,,2013-07-06 21:02:00,
2013-07-06 14:23:00,93.0,52.0,-100.00,NW,305,5.0,17.0,25,0.77,,,-99.99,,2013-07-06 21:23:00,
2013-07-06 14:43:00,91.0,54.0,-100.00,NNE,24,1.0,8.0,29,0.77,,,-99.99,,2013-07-06 21:43:00,
2013-07-06 15:02:00,90.0,54.0,-100.00,SE,139,0.0,2.0,30,0.77,,,-99.99,,2013-07-06 22:02:00,
2013-07-06 15:11:00,90.0,54.0,-100.00,WNW,285,1.0,4.0,30,0.77,,,-99.99,,2013-07-06 22:11:00,
2013-07-06 15:22:00,89.0,54.0,-100.00,WSW,253,2.0,8.0,30,0.77,,,-99.99,,2013-07-06 22:22:00,
2013-07-06 15:34:00,89.0,54.0,-100.00,NE,52,2.0,5.0,31,0.77,,,-99.99,,2013-07-06 22:34:00,
2013-07-06 15:53:00,88.0,54.0,-100.00,WNW,293,2.0,12.0,31,0.77,,,-99.99,,2013-07-06 22:53:00,
2013-07-06 16:11:00,87.0,56.0,-100.00,North,0,0.0,0.0,35,0.77,,,-99.99,,2013-07-06 23:11:00,
2013-07-06 16:22:00,86.0,56.0,-100.00,North,0,0.0,0.0,36,0.77,,,-99.99,,2013-07-06 23:22:00,
2013-07-06 16:34:00,86.0,56.0,-100.00,North,0,0.0,0.0,36,0.77,,,-99.99,,2013-07-06 23:34:00,
2013-07-06 16:44:00,86.0,56.0,-100.00,NNE,15,1.0,6.0,36,0.77,,,-99.99,,2013-07-06 23:44:00,
2013-07-06 16:53:00,87.0,57.0,-100.00,North,0,0.0,0.0,36,0.77,,,-99.99,,2013-07-06 23:53:00,
2013-07-06 17:01:00,87.0,57.0,-100.00,SW,226,0.0,3.0,36,0.77,,,-99.99,,2013-07-07 00:01:00,
2013-07-06 17:11:00,88.0,56.0,-100.00,NNE,21,1.0,6.0,34,0.77,,,-99.99,,2013-07-07 00:11:00,
2013-07-06 17:33:00,88.0,56.0,-100.00,NNE,23,0.0,3.0,34,0.77,,,-99.99,,2013-07-07 00:33:00,
2013-07-06 17:43:00,88.0,56.0,-100.00,NNE,23,0.0,3.0,34,0.77,,,-99.99,,2013-07-07 00:43:00,
2013-07-06 17:52:00,87.0,56.0,-100.00,NE,49,0.0,4.0,35,0.77,,,-99.99,,2013-07-07 00:52:00,
2013-07-06 18:13:00,87.0,56.0,-100.00,North,0,0.0,0.0,35,0.77,,,-99.99,,2013-07-07 01:13:00,
2013-07-06 18:32:00,87.0,56.0,-100.00,North,356,1.0,7.0,35,0.77,,,-99.99,,2013-07-07 01:32:00,
2013-07-06 18:44:00,87.0,56.0,-100.00,North,356,1.0,7.0,35,0.77,,,-99.99,,2013-07-07 01:44:00,
2013-07-06 18:52:00,87.0,56.0,-100.00,North,356,1.0,7.0,35,0.77,,,-99.99,,2013-07-07 01:52:00,
2013-07-06 19:52:00,87.0,55.0,-100.00,North,0,0.0,0.0,34,0.77,,,-99.99,,2013-07-07 02:52:00,
2013-07-06 21:01:00,87.0,55.0,-100.00,NE,51,0.0,4.0,34,0.77,,,-99.99,,2013-07-07 04:01:00,
2013-07-06 21:11:00,87.0,55.0,-100.00,NE,51,0.0,4.0,34,0.77,,,-99.99,,2013-07-07 04:11:00,
2013-07-06 21:21:00,87.0,55.0,-100.00,NE,51,0.0,4.0,34,0.77,,,-99.99,,2013-07-07 04:21:00,
2013-07-06 21:31:00,87.0,55.0,-100.00,NE,51,0.0,4.0,34,0.77,,,-99.99,,2013-07-07 04:31:00,
2013-07-06 21:51:00,87.0,55.0,-100.00,North,0,0.0,0.0,34,0.77,,,-99.99,,2013-07-07 04:51:00,
2013-07-06 22:01:00,87.0,55.0,-100.00,North,0,0.0,0.0,34,0.77,,,-99.99,,2013-07-07 05:01:00,
2013-07-06 22:11:00,87.0,55.0,-100.00,North,0,0.0,0.0,34,0.77,,,-99.99,,2013-07-07 05:11:00,
2013-07-06 22:21:00,87.0,55.0,-100.00,North,0,0.0,0.0,34,0.77,,,-99.99,,2013-07-07 05:21:00,
2013-07-06 22:31:00,80.0,59.0,-100.00,North,0,0.0,0.0,48,0.77,,,-99.99,,2013-07-07 05:31:00,
2013-07-06 22:41:00,80.0,60.0,-100.00,North,0,0.0,0.0,50,0.77,,,-99.99,,2013-07-07 05:41:00,
2013-07-06 22:51:00,80.0,60.0,-100.00,North,0,0.0,0.0,50,0.77,,,-99.99,,2013-07-07 05:51:00,
2013-07-06 23:01:00,80.0,60.0,-100.00,North,0,0.0,0.0,50,0.77,,,-99.99,,2013-07-07 06:01:00,
2013-07-06 23:11:00,80.0,60.0,-100.00,North,0,0.0,0.0,51,0.77,,,-99.99,,2013-07-07 06:11:00,
2013-07-06 23:21:00,80.0,60.0,-100.00,North,0,0.0,0.0,50,0.77,,,-99.99,,2013-07-07 06:21:00,
2013-07-06 23:32:00,79.0,61.0,-100.00,North,0,0.0,0.0,54,0.77,,,-99.99,,2013-07-07 06:32:00,
2013-07-06 23:43:00,78.0,59.0,-100.00,North,0,0.0,0.0,53,0.77,,,-99.99,,2013-07-07 06:43:00,
2013-07-06 23:52:00,78.0,59.0,-100.00,North,0,0.0,0.0,52,0.77,,,-99.99,,2013-07-07 06:52:00,